| time (UTC) | temp F | wind direction | speed MPH | gust MPH | rain 1hr in | rain 24hr in | rain mn in | humidity % | barometer mb |
| 20260506135013 | 49 | 328 | 0.0 | 2.0 | 0.00 | 1.64 | 0.21 | 80 | 1012.5 |
| 20260506134513 | 49 | 331 | 0.0 | 2.0 | 0.00 | 1.64 | 0.21 | 80 | 1012.3 |
| 20260506134013 | 49 | 5 | 0.0 | 2.0 | 0.00 | 1.64 | 0.21 | 82 | 1012.2 |
| 20260506133513 | 49 | 74 | 0.0 | 2.0 | 0.00 | 1.64 | 0.21 | 83 | 1012.1 |
| 20260506133009 | 48 | 5 | 0.0 | 2.0 | 0.00 | 1.64 | 0.21 | 83 | 1012.1 |
| 20260506132508 | 48 | 30 | 0.0 | 2.0 | 0.00 | 1.64 | 0.21 | 83 | 1012.3 |
| 20260506132007 | 48 | 336 | 0.0 | 2.0 | 0.00 | 1.64 | 0.21 | 84 | 1012.3 |
| 20260506131513 | 48 | 336 | 0.0 | 2.0 | 0.00 | 1.64 | 0.21 | 86 | 1012.5 |
| 20260506131007 | 47 | 313 | 0.0 | 2.0 | 0.00 | 1.64 | 0.21 | 85 | 1012.6 |
| 20260506130509 | 48 | 300 | 0.0 | 2.0 | 0.00 | 1.64 | 0.21 | 89 | 1012.5 |
| 20260506130006 | 47 | 327 | 0.0 | 2.0 | 0.00 | 1.64 | 0.21 | 89 | 1012.5 |
| 20260506125505 | 47 | 336 | 0.0 | 2.0 | 0.00 | 1.64 | 0.21 | 89 | 1012.6 |
| 20260506125003 | 47 | 336 | 0.0 | 0.0 | 0.00 | 1.64 | 0.21 | 90 | 1012.5 |
| 20260506124504 | 47 | 327 | 0.0 | 1.0 | 0.00 | 1.64 | 0.21 | 91 | 1012.5 |
| 20260506124003 | 46 | 327 | 0.0 | 1.0 | 0.00 | 1.64 | 0.21 | 91 | 1012.4 |
| 20260506123504 | 46 | 311 | 0.0 | 0.0 | 0.00 | 1.64 | 0.21 | 91 | 1012.7 |
| 20260506123002 | 46 | 317 | 0.0 | 1.0 | 0.00 | 1.64 | 0.21 | 92 | 1012.4 |
| 20260506122601 | 46 | 317 | 0.0 | 1.0 | 0.00 | 1.64 | 0.21 | 91 | 1012.4 |
| 20260506122100 | 46 | 311 | 0.0 | 1.0 | 0.00 | 1.64 | 0.21 | 92 | 1012.5 |
| 20260506121559 | 46 | 308 | 0.0 | 0.0 | 0.00 | 1.64 | 0.21 | 92 | 1012.5 |
| 20260506121058 | 46 | 308 | 0.0 | 0.0 | 0.00 | 1.64 | 0.21 | 92 | 1012.5 |
| 20260506120557 | 46 | 307 | 0.0 | 0.0 | 0.00 | 1.64 | 0.21 | 92 | 1012.2 |
| 20260506120100 | 46 | 307 | 0.0 | 2.0 | 0.00 | 1.64 | 0.21 | 92 | 1012.1 |
| 20260506115556 | 45 | 307 | 0.0 | 2.0 | 0.00 | 1.64 | 0.21 | 93 | 1011.7 |
| 20260506115055 | 45 | 312 | 0.0 | 0.0 | 0.00 | 1.64 | 0.21 | 93 | 1011.7 |
| 20260506114605 | 45 | 312 | 0.0 | 0.0 | 0.00 | 1.64 | 0.21 | 93 | 1011.7 |
| 20260506114058 | 45 | 312 | 0.0 | 0.0 | 0.00 | 1.64 | 0.21 | 94 | 1011.7 |
| 20260506113553 | 45 | 312 | 0.0 | 1.0 | 0.00 | 1.64 | 0.21 | 94 | 1011.5 |
| 20260506113054 | 45 | 312 | 0.0 | 1.0 | 0.00 | 1.64 | 0.21 | 93 | 1011.3 |
| 20260506112553 | 45 | 315 | 0.0 | 1.0 | 0.00 | 1.64 | 0.21 | 94 | 1011.2 |
| 20260506112052 | 45 | 315 | 0.0 | 1.0 | 0.00 | 1.64 | 0.21 | 94 | 1011.3 |
| 20260506111551 | 45 | 321 | 0.0 | 0.0 | 0.00 | 1.64 | 0.21 | 93 | 1011.0 |
| 20260506111050 | 45 | 321 | 0.0 | 0.0 | 0.00 | 1.64 | 0.21 | 92 | 1010.7 |
| 20260506110550 | 45 | 321 | 0.0 | 2.0 | 0.00 | 1.64 | 0.21 | 92 | 1010.6 |
| 20260506110056 | 45 | 321 | 0.0 | 2.0 | 0.00 | 1.64 | 0.21 | 92 | 1010.5 |
| 20260506105548 | 45 | 322 | 0.0 | 0.0 | 0.00 | 1.65 | 0.21 | 92 | 1010.4 |
| 20260506105048 | 45 | 322 | 0.0 | 2.0 | 0.00 | 1.65 | 0.21 | 92 | 1010.2 |
| 20260506104548 | 45 | 327 | 0.0 | 2.0 | 0.00 | 1.65 | 0.21 | 91 | 1010.2 |
| 20260506104047 | 45 | 329 | 0.0 | 0.0 | 0.00 | 1.65 | 0.21 | 91 | 1010.1 |
| 20260506103552 | 45 | 329 | 0.0 | 2.0 | 0.00 | 1.65 | 0.21 | 91 | 1010.0 |
| 20260506103048 | 45 | 329 | 0.0 | 2.0 | 0.00 | 1.65 | 0.21 | 90 | 1009.8 |
| 20260506102547 | 45 | 326 | 0.0 | 0.0 | 0.00 | 1.65 | 0.21 | 90 | 1009.8 |
| 20260506102047 | 45 | 326 | 0.0 | 2.0 | 0.00 | 1.65 | 0.21 | 90 | 1009.8 |
| 20260506101547 | 45 | 325 | 0.0 | 2.0 | 0.00 | 1.65 | 0.21 | 90 | 1010.0 |
| 20260506101049 | 45 | 324 | 0.0 | 2.0 | 0.00 | 1.65 | 0.21 | 90 | 1010.0 |
| 20260506100546 | 45 | 324 | 0.0 | 1.0 | 0.00 | 1.65 | 0.21 | 91 | 1010.0 |
| 20260506100047 | 45 | 322 | 0.0 | 2.0 | 0.00 | 1.65 | 0.21 | 91 | 1010.3 |
| 20260506095549 | 45 | 346 | 0.0 | 2.0 | 0.00 | 1.73 | 0.21 | 91 | 1010.3 |
| 20260506095046 | 44 | 347 | 0.0 | 2.0 | 0.01 | 1.73 | 0.21 | 91 | 1010.3 |
| 20260506094605 | 44 | 319 | 0.0 | 0.0 | 0.01 | 1.73 | 0.21 | 90 | 1010.4 |
| 20260506094044 | 45 | 326 | 0.0 | 2.0 | 0.01 | 1.73 | 0.21 | 90 | 1010.0 |
| 20260506093543 | 45 | 326 | 0.0 | 2.0 | 0.01 | 1.73 | 0.21 | 90 | 1009.8 |
| 20260506093046 | 45 | 5 | 0.0 | 2.0 | 0.01 | 1.73 | 0.21 | 90 | 1009.6 |
| 20260506092542 | 45 | 5 | 0.0 | 2.0 | 0.01 | 1.73 | 0.21 | 90 | 1009.4 |
| 20260506092042 | 45 | 5 | 0.0 | 2.0 | 0.01 | 1.73 | 0.21 | 90 | 1009.4 |
| 20260506091542 | 45 | 44 | 0.0 | 1.0 | 0.01 | 1.73 | 0.21 | 90 | 1009.0 |
| 20260506091041 | 45 | 9 | 0.0 | 1.0 | 0.01 | 1.73 | 0.21 | 90 | 1009.4 |
| 20260506090541 | 45 | 360 | 0.0 | 2.0 | 0.01 | 1.73 | 0.21 | 91 | 1009.5 |
| 20260506090041 | 45 | 346 | 0.0 | 2.0 | 0.01 | 1.73 | 0.21 | 90 | 1009.6 |
| 20260506085541 | 45 | 343 | 0.0 | 2.0 | 0.00 | 1.95 | 0.20 | 91 | 1009.8 |
| 20260506085041 | 45 | 19 | 0.0 | 2.0 | 0.00 | 1.95 | 0.20 | 91 | 1009.3 |
| 20260506084541 | 44 | 61 | 0.0 | 2.0 | 0.00 | 1.95 | 0.20 | 90 | 1009.5 |
| 20260506084044 | 45 | 338 | 0.0 | 2.0 | 0.00 | 1.95 | 0.20 | 90 | 1009.7 |
| 20260506083540 | 45 | 333 | 0.0 | 2.0 | 0.00 | 1.95 | 0.20 | 90 | 1009.7 |
| 20260506083038 | 45 | 355 | 0.0 | 2.0 | 0.00 | 1.95 | 0.20 | 91 | 1009.4 |
| 20260506082537 | 45 | 334 | 0.0 | 2.0 | 0.00 | 1.95 | 0.20 | 92 | 1009.3 |
| 20260506082036 | 45 | 330 | 0.0 | 2.0 | 0.00 | 1.95 | 0.20 | 92 | 1008.9 |
| 20260506081538 | 45 | 329 | 0.0 | 2.0 | 0.00 | 1.95 | 0.20 | 92 | 1009.2 |
| 20260506081036 | 45 | 321 | 0.0 | 2.0 | 0.01 | 1.95 | 0.20 | 92 | 1009.3 |
| 20260506080536 | 45 | 26 | 0.0 | 2.0 | 0.01 | 1.95 | 0.20 | 92 | 1008.5 |
| 20260506073041 | 45 | 355 | 0.0 | 2.0 | 0.02 | 2.22 | 0.20 | 91 | 1009.2 |
| 20260506072533 | 46 | 355 | 0.0 | 3.0 | 0.03 | 2.22 | 0.20 | 92 | 1008.9 |
| 20260506072037 | 46 | 355 | 0.0 | 3.0 | 0.03 | 2.22 | 0.20 | 92 | 1008.8 |
| 20260506071534 | 46 | 12 | 0.0 | 2.0 | 0.04 | 2.22 | 0.20 | 92 | 1008.5 |
| 20260506071032 | 45 | 10 | 0.0 | 2.0 | 0.03 | 2.21 | 0.19 | 91 | 1008.7 |
| 20260506070531 | 46 | 40 | 0.0 | 2.0 | 0.04 | 2.21 | 0.19 | 91 | 1008.8 |
| 20260506062025 | 47 | 333 | 0.0 | 2.0 | 0.04 | 2.19 | 0.17 | 94 | 1008.9 |
| 20260506061532 | 47 | 355 | 0.0 | 2.0 | 0.04 | 2.18 | 0.16 | 94 | 1008.9 |
| 20260506061028 | 48 | 348 | 0.0 | 2.0 | 0.04 | 2.18 | 0.16 | 94 | 1008.9 |
| 20260506060525 | 47 | 9 | 0.0 | 2.0 | 0.04 | 2.17 | 0.15 | 94 | 1008.7 |
| 20260506051017 | 48 | 80 | 0.0 | 3.0 | 0.08 | 2.14 | 0.12 | 95 | 1007.5 |
| 20260506050518 | 48 | 360 | 0.0 | 2.0 | 0.09 | 2.13 | 0.11 | 95 | 1007.9 |
| 20260506045013 | 48 | 355 | 0.0 | 2.0 | 0.13 | 2.11 | 0.09 | 95 | 1007.9 |
| 20260506044513 | 48 | 13 | 0.0 | 2.0 | 0.15 | 2.11 | 0.09 | 95 | 1007.7 |
| 20260506044016 | 48 | 349 | 0.0 | 2.0 | 0.13 | 2.09 | 0.07 | 95 | 1007.7 |
| 20260506043511 | 48 | 336 | 0.0 | 2.0 | 0.15 | 2.08 | 0.06 | 95 | 1007.2 |
| 20260506043009 | 48 | 9 | 0.0 | 2.0 | 0.19 | 2.08 | 0.06 | 95 | 1007.5 |
| 20260506042510 | 48 | 17 | 0.0 | 2.0 | 0.20 | 2.08 | 0.06 | 95 | 1007.2 |
| 20260506042007 | 48 | 15 | 0.0 | 2.0 | 0.21 | 2.06 | 0.05 | 95 | 1007.2 |
| 20260506041505 | 48 | 343 | 0.0 | 2.0 | 0.23 | 2.06 | 0.04 | 95 | 1007.5 |
| 20260506041009 | 48 | 346 | 0.0 | 2.0 | 0.25 | 2.06 | 0.04 | 95 | 1007.7 |
| 20260506040504 | 48 | 355 | 0.0 | 2.0 | 0.26 | 2.04 | 0.02 | 95 | 1007.6 |
| 20260506040005 | 48 | 360 | 0.0 | 2.0 | 0.27 | 2.02 | 2.02 | 95 | 1007.7 |
| 20260506035503 | 48 | 330 | 0.0 | 2.0 | 0.27 | 2.00 | 2.00 | 95 | 1007.9 |
| 20260506035002 | 48 | 331 | 0.0 | 2.0 | 0.27 | 1.98 | 1.98 | 95 | 1007.8 |
| 20260506034501 | 49 | 9 | 0.0 | 2.0 | 0.27 | 1.96 | 1.96 | 95 | 1007.6 |
| 20260506034001 | 49 | 315 | 0.0 | 2.0 | 0.28 | 1.95 | 1.95 | 95 | 1007.7 |
| 20260506033501 | 49 | 329 | 0.0 | 2.0 | 0.28 | 1.93 | 1.93 | 95 | 1007.7 |
| 20260506033001 | 49 | 5 | 0.0 | 2.0 | 0.27 | 1.89 | 1.89 | 95 | 1007.6 |
| 20260506032103 | 49 | 350 | 0.0 | 2.0 | 0.32 | 1.87 | 1.87 | 95 | 1007.1 |
| 20260506031606 | 49 | 333 | 0.0 | 2.0 | 0.30 | 1.84 | 1.84 | 95 | 1007.0 |
| 20260506031059 | 49 | 11 | 0.0 | 2.0 | 0.28 | 1.82 | 1.82 | 95 | 1007.0 |
| 20260506030600 | 49 | 71 | 0.0 | 2.0 | 0.27 | 1.78 | 1.78 | 95 | 1006.9 |
| 20260506025559 | 49 | 76 | 0.0 | 2.0 | 0.23 | 1.73 | 1.73 | 95 | 1006.8 |
| 20260506025059 | 49 | 11 | 0.0 | 2.0 | 0.21 | 1.71 | 1.71 | 95 | 1007.2 |
| 20260506024559 | 49 | 22 | 0.0 | 2.0 | 0.20 | 1.69 | 1.69 | 95 | 1007.0 |
| 20260506024059 | 49 | 340 | 0.0 | 2.0 | 0.19 | 1.68 | 1.68 | 95 | 1007.6 |
| 20260506023558 | 49 | 346 | 0.0 | 2.0 | 0.16 | 1.64 | 1.64 | 95 | 1007.3 |
| 20260506023059 | 49 | 355 | 0.0 | 2.0 | 0.16 | 1.62 | 1.62 | 95 | 1007.2 |
| 20260506022557 | 49 | 336 | 0.0 | 2.0 | 0.12 | 1.58 | 1.58 | 95 | 1007.8 |
| 20260506022057 | 49 | 323 | 0.0 | 2.0 | 0.09 | 1.55 | 1.55 | 95 | 1007.5 |
| 20260506021559 | 49 | 355 | 0.0 | 2.0 | 0.09 | 1.54 | 1.54 | 95 | 1006.8 |
| 20260506021058 | 49 | 55 | 0.0 | 2.0 | 0.08 | 1.53 | 1.53 | 95 | 1006.7 |
| 20260506020556 | 49 | 48 | 0.0 | 2.0 | 0.09 | 1.51 | 1.51 | 95 | 1006.7 |
| 20260506015556 | 49 | 33 | 0.0 | 2.0 | 0.10 | 1.50 | 1.50 | 94 | 1006.7 |
| 20260506015056 | 49 | 53 | 0.0 | 2.0 | 0.12 | 1.50 | 1.50 | 95 | 1006.9 |
| 20260506014557 | 49 | 23 | 0.0 | 2.0 | 0.14 | 1.49 | 1.49 | 95 | 1006.8 |
| 20260506014056 | 49 | 5 | 0.0 | 2.0 | 0.14 | 1.49 | 1.49 | 95 | 1006.9 |
| 20260506013556 | 49 | 347 | 0.0 | 2.0 | 0.14 | 1.48 | 1.48 | 95 | 1006.8 |
| 20260506013056 | 49 | 341 | 0.0 | 2.0 | 0.12 | 1.46 | 1.46 | 94 | 1006.9 |
| 20260506012555 | 49 | 337 | 0.0 | 2.0 | 0.14 | 1.46 | 1.46 | 94 | 1007.2 |
| 20260506012055 | 49 | 347 | 0.0 | 2.0 | 0.14 | 1.46 | 1.46 | 94 | 1007.1 |
| 20260506011601 | 49 | 349 | 0.0 | 2.0 | 0.14 | 1.45 | 1.45 | 94 | 1006.9 |
| 20260506011055 | 49 | 71 | 0.0 | 2.0 | 0.14 | 1.44 | 1.44 | 94 | 1006.6 |
| 20260506010556 | 49 | 77 | 0.0 | 2.0 | 0.12 | 1.41 | 1.41 | 94 | 1007.0 |
| 20260506010058 | 49 | 129 | 0.0 | 2.0 | 0.12 | 1.41 | 1.41 | 94 | 1007.4 |
| 20260506005554 | 49 | 40 | 0.0 | 3.0 | 0.11 | 1.40 | 1.40 | 94 | 1007.3 |
| 20260506005053 | 49 | 355 | 0.0 | 3.0 | 0.08 | 1.37 | 1.37 | 93 | 1007.4 |
| 20260506004553 | 49 | 293 | 0.0 | 2.0 | 0.07 | 1.35 | 1.35 | 94 | 1007.6 |
| 20260506004052 | 49 | 355 | 0.0 | 4.0 | 0.08 | 1.35 | 1.35 | 93 | 1007.3 |
| 20260506003550 | 50 | 54 | 1.0 | 4.0 | 0.09 | 1.34 | 1.34 | 94 | 1007.1 |
| 20260506003050 | 50 | 69 | 1.0 | 2.0 | 0.08 | 1.33 | 1.33 | 94 | 1007.0 |
| 20260506002551 | 50 | 338 | 0.0 | 2.0 | 0.08 | 1.32 | 1.32 | 94 | 1007.0 |
| 20260506002049 | 50 | 340 | 0.0 | 3.0 | 0.10 | 1.32 | 1.32 | 94 | 1007.1 |
| 20260506001549 | 50 | 28 | 0.0 | 3.0 | 0.13 | 1.31 | 1.31 | 94 | 1006.9 |
| 20260506001049 | 50 | 17 | 0.0 | 2.0 | 0.13 | 1.30 | 1.30 | 94 | 1007.0 |
| 20260506000547 | 50 | 344 | 0.0 | 2.0 | 0.12 | 1.29 | 1.29 | 94 | 1006.8 |
| 20260506000047 | 50 | 360 | 0.0 | 2.0 | 0.12 | 1.29 | 1.29 | 94 | 1006.3 |
| 20260505235547 | 51 | 350 | 0.0 | 2.0 | 0.13 | 1.29 | 1.29 | 94 | 1006.5 |
| 20260505235047 | 51 | 58 | 0.0 | 2.0 | 0.15 | 1.29 | 1.29 | 94 | 1006.9 |
| 20260505234556 | 51 | 336 | 0.0 | 2.0 | 0.18 | 1.28 | 1.28 | 94 | 1007.1 |
| 20260505234045 | 51 | 5 | 0.0 | 2.0 | 0.22 | 1.26 | 1.26 | 94 | 1007.2 |
| 20260505233545 | 51 | 333 | 0.0 | 2.0 | 0.30 | 1.25 | 1.25 | 94 | 1006.7 |
| 20260505233048 | 51 | 360 | 0.0 | 2.0 | 0.36 | 1.25 | 1.25 | 93 | 1006.9 |
| 20260505232544 | 52 | 355 | 0.0 | 2.0 | 0.37 | 1.24 | 1.24 | 94 | 1006.5 |
| 20260505232047 | 52 | 9 | 0.0 | 5.0 | 0.36 | 1.22 | 1.22 | 93 | 1006.7 |
| 20260505231550 | 52 | 346 | 1.0 | 5.0 | 0.33 | 1.18 | 1.18 | 93 | 1007.3 |
| 20260505231042 | 52 | 9 | 0.0 | 3.0 | 0.34 | 1.17 | 1.17 | 93 | 1007.2 |
| 20260505230546 | 52 | 349 | 1.0 | 5.0 | 0.34 | 1.17 | 1.17 | 93 | 1006.6 |
| 20260505230041 | 53 | 333 | 0.0 | 5.0 | 0.35 | 1.17 | 1.17 | 93 | 1006.3 |
| 20260505225539 | 53 | 5 | 0.0 | 4.0 | 0.34 | 1.15 | 1.15 | 92 | 1006.3 |
| 20260505225038 | 54 | 339 | 1.0 | 5.0 | 0.33 | 1.12 | 1.12 | 92 | 1006.4 |
| 20260505224537 | 55 | 349 | 0.0 | 9.0 | 0.30 | 1.09 | 1.09 | 91 | 1006.6 |
| 20260505224035 | 58 | 329 | 2.0 | 9.0 | 0.22 | 1.01 | 1.01 | 91 | 1006.6 |
| 20260505223535 | 60 | 313 | 0.0 | 2.0 | 0.16 | 0.94 | 0.94 | 95 | 1006.1 |
| 20260505223039 | 60 | 313 | 0.0 | 2.0 | 0.10 | 0.88 | 0.88 | 95 | 1005.8 |
| 20260505222535 | 60 | 298 | 0.0 | 2.0 | 0.10 | 0.87 | 0.87 | 95 | 1005.8 |
| 20260505222036 | 60 | 157 | 0.0 | 0.0 | 0.10 | 0.86 | 0.86 | 94 | 1005.8 |
| 20260505221535 | 60 | 157 | 0.0 | 2.0 | 0.09 | 0.85 | 0.85 | 94 | 1005.8 |
| 20260505221034 | 60 | 201 | 0.0 | 2.0 | 0.07 | 0.83 | 0.83 | 94 | 1005.6 |
| 20260505220537 | 60 | 216 | 0.0 | 0.0 | 0.07 | 0.83 | 0.83 | 94 | 1005.7 |
| 20260505220040 | 60 | 195 | 0.0 | 1.0 | 0.07 | 0.82 | 0.82 | 94 | 1005.7 |
| 20260505215534 | 60 | 198 | 0.0 | 2.0 | 0.06 | 0.81 | 0.81 | 94 | 1005.7 |
| 20260505215034 | 60 | 142 | 0.0 | 2.0 | 0.04 | 0.79 | 0.80 | 94 | 1005.9 |
| 20260505214541 | 60 | 250 | 0.0 | 2.0 | 0.04 | 0.79 | 0.79 | 94 | 1005.9 |
| 20260505214034 | 60 | 177 | 0.0 | 2.0 | 0.04 | 0.79 | 0.79 | 94 | 1005.9 |
| 20260505213534 | 60 | 162 | 0.0 | 2.0 | 0.03 | 0.78 | 0.78 | 94 | 1005.9 |
| 20260505213035 | 60 | 169 | 0.0 | 2.0 | 0.03 | 0.78 | 0.78 | 94 | 1005.9 |
| 20260505212534 | 60 | 184 | 0.0 | 2.0 | 0.02 | 0.77 | 0.77 | 94 | 1005.9 |
| 20260505212033 | 60 | 166 | 0.0 | 2.0 | 0.01 | 0.76 | 0.76 | 94 | 1006.0 |
| 20260505211533 | 60 | 82 | 0.0 | 2.0 | 0.01 | 0.76 | 0.76 | 94 | 1006.0 |
| 20260505211033 | 60 | 93 | 0.0 | 2.0 | 0.01 | 0.76 | 0.76 | 94 | 1006.0 |
| 20260505210532 | 61 | 85 | 0.0 | 2.0 | 0.01 | 0.76 | 0.76 | 93 | 1006.1 |
| 20260505210033 | 60 | 131 | 0.0 | 2.0 | 0.00 | 0.75 | 0.75 | 93 | 1006.0 |
| 20260505205533 | 61 | 207 | 0.0 | 0.0 | 0.01 | 0.75 | 0.75 | 94 | 1006.2 |
| 20260505205033 | 60 | 204 | 0.0 | 0.0 | 0.01 | 0.75 | 0.75 | 93 | 1006.1 |
| 20260505204536 | 60 | 181 | 0.0 | 0.0 | 0.01 | 0.75 | 0.75 | 93 | 1006.2 |
| 20260505204032 | 60 | 178 | 0.0 | 2.0 | 0.01 | 0.75 | 0.75 | 93 | 1006.2 |
| 20260505203532 | 60 | 175 | 0.0 | 2.0 | 0.01 | 0.75 | 0.75 | 93 | 1006.3 |
| 20260505203033 | 60 | 173 | 0.0 | 2.0 | 0.01 | 0.75 | 0.75 | 93 | 1006.3 |
| 20260505202534 | 60 | 161 | 0.0 | 3.0 | 0.01 | 0.75 | 0.75 | 93 | 1006.2 |
| 20260505202035 | 60 | 176 | 0.0 | 3.0 | 0.01 | 0.75 | 0.75 | 93 | 1006.2 |
| 20260505201534 | 60 | 238 | 0.0 | 2.0 | 0.01 | 0.75 | 0.75 | 93 | 1006.2 |
| 20260505201032 | 60 | 161 | 0.0 | 2.0 | 0.01 | 0.75 | 0.75 | 93 | 1006.2 |
| 20260505200531 | 60 | 215 | 0.0 | 2.0 | 0.01 | 0.75 | 0.75 | 93 | 1006.1 |
| 20260505200040 | 60 | 163 | 0.0 | 2.0 | 0.01 | 0.75 | 0.75 | 93 | 1006.2 |
| 20260505195534 | 60 | 112 | 0.0 | 6.0 | 0.00 | 0.74 | 0.74 | 93 | 1006.3 |
| 20260505195031 | 60 | 147 | 0.0 | 6.0 | 0.00 | 0.74 | 0.74 | 93 | 1006.5 |
| 20260505194530 | 60 | 201 | 0.0 | 6.0 | 0.00 | 0.74 | 0.74 | 93 | 1006.6 |
| 20260505194030 | 60 | 116 | 0.0 | 2.0 | 0.00 | 0.74 | 0.74 | 93 | 1006.6 |
| 20260505193530 | 60 | 253 | 0.0 | 2.0 | 0.00 | 0.74 | 0.74 | 93 | 1006.7 |
| 20260505193030 | 60 | 221 | 0.0 | 2.0 | 0.00 | 0.74 | 0.74 | 93 | 1006.7 |
| 20260505192533 | 59 | 161 | 0.0 | 3.0 | 0.01 | 0.74 | 0.74 | 93 | 1006.8 |
| 20260505192029 | 59 | 211 | 0.0 | 2.0 | 0.01 | 0.74 | 0.74 | 93 | 1006.8 |
| 20260505191529 | 59 | 127 | 0.0 | 2.0 | 0.01 | 0.74 | 0.74 | 93 | 1006.9 |
| 20260505191030 | 59 | 173 | 0.0 | 2.0 | 0.02 | 0.74 | 0.74 | 93 | 1007.0 |
| 20260505190529 | 59 | 105 | 0.0 | 2.0 | 0.02 | 0.74 | 0.74 | 93 | 1006.9 |
| 20260505190036 | 59 | 142 | 0.0 | 2.0 | 0.03 | 0.74 | 0.74 | 93 | 1006.8 |
| 20260505185528 | 59 | 124 | 0.0 | 2.0 | 0.04 | 0.74 | 0.74 | 93 | 1006.9 |
| 20260505185028 | 59 | 116 | 0.0 | 2.0 | 0.06 | 0.74 | 0.74 | 93 | 1006.9 |
| 20260505184528 | 59 | 142 | 0.0 | 2.0 | 0.07 | 0.74 | 0.74 | 93 | 1007.1 |
| 20260505184028 | 59 | 196 | 0.0 | 2.0 | 0.08 | 0.74 | 0.74 | 93 | 1007.2 |
| 20260505183527 | 59 | 186 | 0.0 | 2.0 | 0.09 | 0.74 | 0.74 | 93 | 1007.2 |
| 20260505183031 | 59 | 229 | 0.0 | 2.0 | 0.10 | 0.74 | 0.74 | 93 | 1007.2 |
| 20260505182528 | 59 | 172 | 0.0 | 2.0 | 0.10 | 0.73 | 0.73 | 93 | 1007.1 |
| 20260505182026 | 59 | 199 | 0.0 | 2.0 | 0.12 | 0.73 | 0.73 | 93 | 1007.2 |
| 20260505181526 | 59 | 153 | 0.0 | 2.0 | 0.13 | 0.73 | 0.73 | 92 | 1007.1 |
| 20260505181026 | 59 | 187 | 0.0 | 2.0 | 0.13 | 0.72 | 0.72 | 92 | 1007.2 |
| 20260505180525 | 59 | 146 | 0.0 | 2.0 | 0.13 | 0.72 | 0.72 | 92 | 1007.3 |
| 20260505180026 | 59 | 183 | 0.0 | 2.0 | 0.12 | 0.71 | 0.71 | 91 | 1007.3 |
| 20260505175526 | 59 | 96 | 0.0 | 2.0 | 0.11 | 0.70 | 0.70 | 91 | 1007.2 |
| 20260505175026 | 59 | 171 | 0.0 | 2.0 | 0.09 | 0.68 | 0.68 | 91 | 1007.4 |
| 20260505174530 | 59 | 179 | 0.0 | 2.0 | 0.08 | 0.67 | 0.67 | 90 | 1007.5 |
| 20260505174027 | 60 | 121 | 0.0 | 2.0 | 0.07 | 0.66 | 0.66 | 90 | 1007.7 |
| 20260505173525 | 60 | 191 | 0.0 | 2.0 | 0.06 | 0.65 | 0.65 | 89 | 1007.6 |
| 20260505173025 | 60 | 176 | 0.0 | 2.0 | 0.05 | 0.64 | 0.64 | 88 | 1007.5 |
| 20260505172524 | 60 | 182 | 0.0 | 5.0 | 0.04 | 0.63 | 0.63 | 88 | 1007.9 |
| 20260505172026 | 61 | 130 | 0.0 | 5.0 | 0.02 | 0.61 | 0.61 | 87 | 1008.1 |
| 20260505171527 | 61 | 201 | 0.0 | 5.0 | 0.01 | 0.60 | 0.60 | 85 | 1007.9 |
| 20260505171024 | 61 | 156 | 0.0 | 5.0 | 0.00 | 0.59 | 0.59 | 85 | 1007.8 |
| 20260505170524 | 62 | 192 | 0.0 | 2.0 | 0.00 | 0.59 | 0.59 | 84 | 1007.7 |
| 20260505170024 | 62 | 210 | 0.0 | 2.0 | 0.00 | 0.59 | 0.59 | 84 | 1007.6 |
| 20260505165524 | 62 | 202 | 0.0 | 2.0 | 0.00 | 0.59 | 0.59 | 84 | 1007.6 |
| 20260505165024 | 62 | 196 | 0.0 | 2.0 | 0.00 | 0.59 | 0.59 | 81 | 1007.5 |
| 20260505164523 | 62 | 92 | 0.0 | 2.0 | 0.00 | 0.59 | 0.59 | 82 | 1007.6 |
| 20260505164025 | 62 | 169 | 0.0 | 2.0 | 0.00 | 0.59 | 0.59 | 82 | 1007.6 |
| 20260505163526 | 62 | 202 | 0.0 | 2.0 | 0.00 | 0.59 | 0.59 | 82 | 1007.6 |
| 20260505163022 | 62 | 166 | 0.0 | 2.0 | 0.00 | 0.59 | 0.59 | 82 | 1007.5 |
| 20260505162522 | 62 | 196 | 0.0 | 5.0 | 0.00 | 0.59 | 0.59 | 82 | 1007.6 |
| 20260505162022 | 62 | 145 | 0.0 | 5.0 | 0.00 | 0.59 | 0.59 | 82 | 1007.6 |
| 20260505161522 | 62 | 150 | 0.0 | 5.0 | 0.00 | 0.59 | 0.59 | 82 | 1007.5 |
| 20260505161024 | 62 | 167 | 0.0 | 4.0 | 0.00 | 0.59 | 0.59 | 83 | 1007.6 |
| 20260505160522 | 62 | 216 | 0.0 | 2.0 | 0.00 | 0.59 | 0.59 | 83 | 1007.5 |
| 20260505153020 | 62 | 178 | 0.0 | 2.0 | 0.00 | 0.59 | 0.59 | 85 | 1007.5 |
| 20260505152520 | 62 | 144 | 0.0 | 2.0 | 0.00 | 0.59 | 0.59 | 86 | 1007.5 |
| 20260505152022 | 61 | 90 | 0.0 | 2.0 | 0.00 | 0.59 | 0.59 | 86 | 1007.5 |
| 20260505151520 | 61 | 187 | 0.0 | 0.0 | 0.00 | 0.59 | 0.59 | 86 | 1007.4 |
| 20260505151020 | 61 | 150 | 0.0 | 0.0 | 0.00 | 0.59 | 0.59 | 87 | 1007.5 |
| 20260505150518 | 61 | 151 | 0.0 | 0.0 | 0.00 | 0.59 | 0.59 | 88 | 1007.5 |
| 20260505140514 | 60 | 143 | 0.0 | 2.0 | 0.00 | 0.59 | 0.59 | 90 | 1007.2 |